ギブス彗星

335P/Gibbs (2009)

English version
Home page
Updated on February 27, 2016

---------------------------------------------------------------------

・ プロフィール

符号 335P/2008 Y2
発見日 2008年12月31日
発見光度 18.2等
発見者 A. R. Gibbs (Catalina Sky Survey)

・ 写真集

・ 軌道要素

Epoch 2009 Jan. 9.0 TT = JDT 2454840.5
T 2009 Jan. 22.40118 TT                                 MPCW
q   1.6384674            (2000.0)            P               Q
n   0.14487039     Peri.  162.33741     -0.68613104     -0.72486524
a   3.5904561      Node   330.89370     +0.65123259     -0.57427462
e   0.5436604      Incl.    7.27529     +0.32422263     -0.38049841
P   6.80
From 356 observations 2008 Dec. 1-2016 Feb. 3, mean residual 0".4.

・ 光度変化

        m1 = 12.5 + 5 logΔ + 25.0 log r(t - 35)

---------------------------------------------------------------------

軌道要素はM.P.E.C. 2016-C42に掲載されたものです。
光度グラフはComet for Windowsで作成したものです。

---------------------------------------------------------------------

Copyright(C) Seiichi Yoshida (comet@aerith.net). All rights reserved.